Regional Weather Roundup
Issued by NWS

Home | Current Version | Previous Version | Graphics & Text | Print | Product List | Glossary On
Versions: 1 2 3 4 5 6 7 8 9 10 11 12 13 14 15 16 17 18 19 20 21 22 23 24 25 26 27 28 29 30 31 32 33 34 35 36 37 38 39 40 41 42 43 44 45 46 47 48 49 50
000
ASUS43 KMPX 280401
RWRMN
WEATHER ROUNDUP FOR MINNESOTA
NATIONAL WEATHER SERVICE TWIN CITIES/CHANHASSEN MN
1100 PM CDT WED AUG 27 2014


NOTE: "FAIR" INDICATES FEW OR NO CLOUDS BELOW 12,000 FEET WITH NO
SIGNIFICANT WEATHER AND/OR OBSTRUCTIONS TO VISIBILITY. N/A MEANS
CURRENT SKY AND/OR WEATHER CONDITIONS ARE NOT AVAILABLE.

MNZ060>063-068>070-280500-
   Twin Cities Metro

CITY           SKY/WX    TMP DP  RH WIND       PRES   REMARKS
TWIN CITIES    MOCLDY    68  57  68 VRB7      30.14R
ST PAUL        CLEAR     66  58  75 E5        30.15R
CRYSTAL        CLEAR     66  56  70 E5        30.13R
BLAINE         PTCLDY    64  57  77 E3        30.15S
LAKEVILLE      CLEAR     59  57  94 CALM      30.15R
EDEN PRAIRIE   MOCLDY    68  59  73 NE3       30.13R
SOUTH ST PAUL  PTCLDY    67  57  70 CALM      30.14S
LAKE ELMO      FAIR      61  57  88 NE5       30.16S
$$
MNZ001>005-007-008-013>017-022>024-027-028-280500-
   Northwest Minnesota

CITY           SKY/WX    TMP DP  RH WIND       PRES   REMARKS
BEMIDJI        CLEAR     58  55  92 SW3       30.12S
HALLOCK        CLEAR     55  54  94 SE7       30.06S
ROSEAU         CLEAR     57  52  82 SE5       30.08F
WARROAD        CLEAR     54  48  82 S5        30.10S
THIEF RVR FALL CLEAR     55  54  94 SE5       30.09S
CROOKSTON      CLEAR     57  54  88 SE7       30.09S
FOSSTON        CLEAR     57  52  82 SE5       30.12R
DETROIT LAKES  PTCLDY    61  59  94 S6        30.13S
MOORHEAD       CLOUDY    64  63  94 SE5       30.10S
PARK RAPIDS    CLEAR     59  56  89 SE3       30.13S
MAHNOMEN       FAIR      58  55  91 SE3       30.11S
$$
MNZ006-009>011-018-025>026-280500-
   North Central Minnesota

CITY           SKY/WX    TMP DP  RH WIND       PRES   REMARKS
BAUDETTE       CLEAR     53  51  93 CALM      30.10F
FLAG ISLAND    CLEAR     66  52  59 SE9       30.07F
INTL FALLS     CLEAR     48  48 100 CALM      30.11F
WASKISH        CLEAR     50  48  93 CALM      30.11S
BIG FORK       PTCLDY    50  48  93 CALM      30.14R
LONGVILLE      CLEAR     54  52  94 CALM      30.13S
GRAND RAPIDS   CLEAR     54  52  94 CALM      30.14R
CRANE LAKE     CLEAR     46  46 100 CALM      30.14F
ORR            CLEAR     48  46  93 CALM      30.11S
COOK           CLEAR     48  48 100 CALM      30.14S
WALKER         FAIR      58  55  92 CALM      30.13R
$$
MNZ012-019>021-037-280500-
   Northeast Minnesota

CITY           SKY/WX    TMP DP  RH WIND       PRES   REMARKS
DULUTH         PTCLDY    60  53  77 CALM      30.14F
ELY            CLEAR     52  48  87 CALM      30.14S
HIBBING        FOG       50  47  89 CALM      30.14S VSB 1/2
EVELETH        MOCLDY    50  48  93 CALM      30.15S
DULUTH HARBOR  PTCLDY    63  57  82 S3        30.14S
TWO HARBORS    CLEAR     52  46  82 CALM      30.13S
SILVER BAY     CLEAR     46  46 100 CALM      30.13S
GRAND MARAIS     N/A     54  49  83 CALM      30.15S
G MARAIS ARPRT MOCLDY    46  43  87 CALM      30.17S
$$
MNZ029>031-032-039>041-046>048-054>057-064-280500-
   West Central Minnesota

CITY           SKY/WX    TMP DP  RH WIND       PRES   REMARKS
FERGUS FALLS   CLOUDY    66  57  72 E7        30.10F
WHEATON        PTCLDY    61  59  94 SE8       30.10F
MORRIS         PTCLDY    64  61  88 E7        30.10S
ALEXANDRIA     PTCLDY    64  59  83 SE7       30.15R
ELBOW LAKE     MOCLDY    65  60  83 SE7       30.11F
WADENA         PTCLDY    57  55  94 CALM      30.13S
GLENWOOD       CLEAR     61  57  88 E3        30.14S
APPLETON       MOCLDY    66  61  82 E5        30.09F
BENSON         PTCLDY    64  61  88 SE5       30.11F
ORTONVILLE     MOCLDY    66  59  77 SE6       30.08F
MADISON        MOCLDY    70  61  73 SE6       30.09S
WILLMAR        FAIR      63  59  88 E5        30.13F
$$
MNZ033>034-036-042>043-049>051-058-059-280500-
   Central Minnesota

CITY           SKY/WX    TMP DP  RH WIND       PRES   REMARKS
ST CLOUD       CLEAR     64  57  78 E3        30.14R
SAUK CENTRE    FAIR      61  58  91 CALM      30.14S
PAYNESVILLE    CLEAR     62  57  83 CALM      30.14S
AITKIN           N/A     55  48  76 CALM      30.13S HAZE
PINE RIVER     PTCLDY    54  54 100 CALM      30.17S FOG
BRAINERD       MOCLDY    57  56  96 S3        30.15R
STAPLES        PTCLDY    57  57 100 CALM      30.14R
LONG PRAIRIE   FAIR      59  57  94 CALM      30.15R
LITTLE FALLS   CLEAR     59  55  88 CALM      30.14S
LITCHFIELD     CLEAR     63  61  94 E3        30.14S
BUFFALO        CLEAR     64  56  75 E5        30.15S
MAPLE LAKE     CLEAR     65  60  83 E3        30.15S
$$
MNZ037-044-045-052-053-280500-
   East Central Minnesota

CITY           SKY/WX    TMP DP  RH WIND       PRES   REMARKS
PRINCETON      CLEAR     59  57  94 E1        30.15S
MORA           CLOUDY    55  55 100 CALM      30.17R
CAMBRIDGE      CLEAR     63  54  72 CALM      30.13S
RUSH CITY      MOCLDY    58  55  92 CALM      30.15R
MOOSE LAKE       N/A     52  50  93 CALM      30.13S FOG
HINCKLEY       MOCLDY    54  52  94 CALM      30.15S
CLOQUET        CLEAR     55  54  94 CALM      30.15S
MCGREGOR         N/A     54  54 100 CALM      30.15S VSB 3/4
$$
MNZ071>073-080-081-089-090-097-098-280500-
   Southwest Minnesota

CITY           SKY/WX    TMP DP  RH WIND       PRES   REMARKS
MONTEVIDEO     PTCLDY    63  61  94 SE5       30.11F
GRANITE FALLS  PTCLDY    63  57  81 E6        30.12F
CANBY          PTCLDY    63  60  87 SE6       30.11S
MARSHALL       PTCLDY    64  57  77 SE9       30.10S
REDWOOD FALLS  CLEAR     63  57  81 SE7       30.12R
OLIVIA         CLEAR     63  55  77 SE3       30.12S
PIPESTONE      CLOUDY    68  64  88 SE6       30.11S
WINDOM         MOCLDY    64  59  82 E6        30.13S
WORTHINGTON    CLOUDY    64  63  94 E6        30.14S
JACKSON        CLOUDY    64  59  82 E7        30.14S
TRACY          MOCLDY    64  61  88 SE6       30.12S
SLAYTON        MOCLDY    64  62  93 CALM      30.13S
$$
MNZ065>067-074>077-082>085-091>093-280500-
   South Central Minnesota

CITY           SKY/WX    TMP DP  RH WIND       PRES   REMARKS
MANKATO        CLEAR     64  55  72 SE7       30.13S
NEW ULM        PTCLDY    63  61  94 SE6       30.12S
ST JAMES       PTCLDY    63  61  94 E5        30.14S
FAIRMONT       MOCLDY    61  55  82 SE6       30.14R
GLENCOE        CLEAR     63  57  83 CALM      30.13S
FARIBAULT      CLEAR     61  55  82 CALM      30.15S
OWATONNA       CLEAR     63  57  82 SE3       30.15S
WASECA         CLEAR     59  54  82 E6        30.16S
ALBERT LEA     CLEAR     64  57  77 SE3       30.16R
$$
MNZ078>079-086>088-094>096-280500-
   Southeast Minnesota

CITY           SKY/WX    TMP DP  RH WIND       PRES   REMARKS
ROCHESTER      CLEAR     61  58  90 S5        30.17R
RED WING       CLEAR     63  59  88 CALM      30.14R
STANTON        CLEAR     60  58  91 CALM      30.13S
DODGE CENTER   CLEAR     61  59  94 CALM      30.17R
WINONA         CLEAR     61  61 100 CALM      30.15R
AUSTIN         CLEAR     61  57  88 CALM      30.16S
PRESTON        CLEAR     63  62  97 CALM      30.17S
$$
ABBREVIATIONS USED IN REMARKS
   TC - TEMPERATURES IN CELSIUS
  WCI - WIND CHILL INDEX
   HX - HEAT INDEX
  VSB - VISIBILITY
$$



USA.gov is the U.S. government's official web portal to all federal, state and local government web resources and services.